Time,TemperatureF,DewpointF,PressureIn,WindDirection,WindDirectionDegrees,WindSpeedMPH,WindSpeedGustMPH,Humidity,HourlyPrecipIn,Conditions,Clouds,dailyrainin,SoftwareType,DateUTC
2013-10-08 00:08:00,74.9,74.0,29.91,SW,214,0.0,4.0,97,0.00,,,0.00,weatherlink.com 1.10,2013-10-08 04:08:00,
2013-10-08 00:24:00,75.0,74.0,29.91,SW,235,2.0,4.0,96,0.00,,,0.00,weatherlink.com 1.10,2013-10-08 04:24:00,
2013-10-08 00:38:00,75.1,74.0,29.91,South,177,1.0,5.0,96,0.00,,,0.00,weatherlink.com 1.10,2013-10-08 04:38:00,
2013-10-08 00:52:00,75.2,74.0,29.90,SW,225,1.0,4.0,95,0.00,,,0.00,weatherlink.com 1.10,2013-10-08 04:52:00,
2013-10-08 01:08:00,75.1,74.0,29.90,SW,224,1.0,3.0,95,0.00,,,0.00,weatherlink.com 1.10,2013-10-08 05:08:00,
2013-10-08 01:23:00,75.0,74.0,29.90,SW,225,2.0,3.0,95,0.00,,,0.00,weatherlink.com 1.10,2013-10-08 05:23:00,
2013-10-08 01:38:00,75.0,74.0,29.90,SE,143,0.0,4.0,95,0.00,,,0.00,weatherlink.com 1.10,2013-10-08 05:38:00,
2013-10-08 01:52:00,74.9,74.0,29.90,SE,143,0.0,4.0,96,0.00,,,0.00,weatherlink.com 1.10,2013-10-08 05:52:00,
2013-10-08 02:08:00,74.9,74.0,29.90,SSE,148,1.0,4.0,96,0.00,,,0.00,weatherlink.com 1.10,2013-10-08 06:08:00,
2013-10-08 02:24:00,75.0,74.0,29.90,SW,228,2.0,3.0,96,0.00,,,0.00,weatherlink.com 1.10,2013-10-08 06:24:00,
2013-10-08 02:37:00,75.0,74.0,29.91,SW,219,0.0,1.0,96,0.00,,,0.00,weatherlink.com 1.10,2013-10-08 06:37:00,
2013-10-08 02:53:00,75.2,74.0,29.91,South,186,1.0,3.0,96,0.00,,,0.00,weatherlink.com 1.10,2013-10-08 06:53:00,
2013-10-08 03:09:00,75.3,74.0,29.91,SE,141,0.0,4.0,96,0.00,,,0.00,weatherlink.com 1.10,2013-10-08 07:09:00,
2013-10-08 03:23:00,75.5,74.0,29.90,South,169,2.0,3.0,96,0.00,,,0.00,weatherlink.com 1.10,2013-10-08 07:23:00,
2013-10-08 03:38:00,75.5,74.0,29.90,SW,225,1.0,6.0,96,0.00,,,0.00,weatherlink.com 1.10,2013-10-08 07:38:00,
2013-10-08 03:54:00,75.4,74.0,29.91,SW,231,0.0,3.0,96,0.00,,,0.00,weatherlink.com 1.10,2013-10-08 07:54:00,
2013-10-08 04:08:00,75.3,74.0,29.91,SW,222,0.0,2.0,96,0.00,,,0.00,weatherlink.com 1.10,2013-10-08 08:08:00,
2013-10-08 04:24:00,75.4,75.0,29.90,WSW,246,0.0,3.0,97,0.00,,,0.00,weatherlink.com 1.10,2013-10-08 08:24:00,
2013-10-08 04:39:00,75.4,75.0,29.90,SW,226,0.0,3.0,97,0.00,,,0.00,weatherlink.com 1.10,2013-10-08 08:39:00,
2013-10-08 04:53:00,75.5,75.0,29.90,SW,221,4.0,4.0,97,0.00,,,0.00,weatherlink.com 1.10,2013-10-08 08:53:00,
2013-10-08 05:09:00,75.5,75.0,29.91,WSW,245,2.0,4.0,97,0.00,,,0.00,weatherlink.com 1.10,2013-10-08 09:09:00,
2013-10-08 05:24:00,75.5,75.0,29.91,SW,232,2.0,4.0,97,0.00,,,0.00,weatherlink.com 1.10,2013-10-08 09:24:00,
2013-10-08 05:38:00,75.4,75.0,29.91,SW,235,3.0,3.0,97,0.00,,,0.00,weatherlink.com 1.10,2013-10-08 09:38:00,
2013-10-08 05:54:00,75.3,74.0,29.91,SW,224,0.0,0.0,97,0.00,,,0.00,weatherlink.com 1.10,2013-10-08 09:54:00,
2013-10-08 06:09:00,75.4,75.0,29.91,SW,232,0.0,3.0,98,0.00,,,0.00,weatherlink.com 1.10,2013-10-08 10:09:00,
2013-10-08 06:24:00,75.7,75.0,29.91,SW,232,3.0,6.0,98,0.00,,,0.00,weatherlink.com 1.10,2013-10-08 10:24:00,
2013-10-08 06:39:00,75.9,75.0,29.92,SW,232,4.0,7.0,98,0.00,,,0.00,weatherlink.com 1.10,2013-10-08 10:39:00,
2013-10-08 06:55:00,75.9,75.0,29.92,WSW,243,4.0,6.0,98,0.00,,,0.00,weatherlink.com 1.10,2013-10-08 10:55:00,
2013-10-08 07:09:00,75.8,75.0,29.92,SW,225,3.0,6.0,98,0.00,,,0.00,weatherlink.com 1.10,2013-10-08 11:09:00,
2013-10-08 07:25:00,75.7,75.0,29.93,SW,232,0.0,4.0,98,0.00,,,0.00,weatherlink.com 1.10,2013-10-08 11:25:00,
2013-10-08 07:40:00,75.9,75.0,29.93,SW,235,4.0,5.0,98,0.00,,,0.00,weatherlink.com 1.10,2013-10-08 11:40:00,
2013-10-08 07:55:00,76.1,76.0,29.94,SW,232,3.0,6.0,98,0.00,,,0.00,weatherlink.com 1.10,2013-10-08 11:55:00,
2013-10-08 08:10:00,76.7,76.0,29.94,SW,235,2.0,5.0,98,0.00,,,0.00,weatherlink.com 1.10,2013-10-08 12:10:00,
2013-10-08 08:24:00,77.0,76.0,29.94,SW,222,2.0,5.0,97,0.00,,,0.00,weatherlink.com 1.10,2013-10-08 12:24:00,
2013-10-08 08:40:00,77.5,76.0,29.95,SW,232,1.0,6.0,96,0.00,,,0.00,weatherlink.com 1.10,2013-10-08 12:40:00,
2013-10-08 08:55:00,78.3,77.0,29.95,WSW,241,6.0,7.0,94,0.00,,,0.00,weatherlink.com 1.10,2013-10-08 12:55:00,
2013-10-08 09:10:00,79.4,76.0,29.95,WSW,241,5.0,9.0,89,0.00,,,0.00,weatherlink.com 1.10,2013-10-08 13:10:00,
2013-10-08 09:26:00,80.2,76.0,29.96,SW,222,6.0,8.0,86,0.00,,,0.00,weatherlink.com 1.10,2013-10-08 13:26:00,
2013-10-08 09:40:00,80.9,76.0,29.96,WSW,255,4.0,10.0,84,0.00,,,0.00,weatherlink.com 1.10,2013-10-08 13:40:00,
2013-10-08 09:56:00,81.4,75.0,29.97,West,263,4.0,9.0,82,0.00,,,0.00,weatherlink.com 1.10,2013-10-08 13:56:00,
2013-10-08 10:10:00,81.5,75.0,29.97,West,266,3.0,11.0,81,0.00,,,0.00,weatherlink.com 1.10,2013-10-08 14:10:00,
2013-10-08 10:26:00,82.1,75.0,29.97,West,259,5.0,10.0,79,0.00,,,0.00,weatherlink.com 1.10,2013-10-08 14:26:00,
2013-10-08 10:40:00,82.3,75.0,29.96,West,264,2.0,9.0,78,0.00,,,0.00,weatherlink.com 1.10,2013-10-08 14:40:00,
2013-10-08 10:56:00,82.8,75.0,29.97,SW,232,6.0,10.0,76,0.00,,,0.00,weatherlink.com 1.10,2013-10-08 14:56:00,
2013-10-08 11:12:00,83.5,74.0,29.97,South,176,3.0,11.0,74,0.00,,,0.00,weatherlink.com 1.10,2013-10-08 15:12:00,
2013-10-08 11:26:00,84.0,75.0,29.96,SW,232,9.0,12.0,75,0.00,,,0.00,weatherlink.com 1.10,2013-10-08 15:26:00,
2013-10-08 11:42:00,84.8,75.0,29.96,WSW,250,4.0,8.0,73,0.00,,,0.00,weatherlink.com 1.10,2013-10-08 15:42:00,
2013-10-08 11:56:00,84.5,75.0,29.96,WSW,252,3.0,9.0,73,0.00,,,0.00,weatherlink.com 1.10,2013-10-08 15:56:00,
2013-10-08 12:11:00,85.1,75.0,29.95,WNW,292,5.0,9.0,71,0.00,,,0.00,weatherlink.com 1.10,2013-10-08 16:11:00,
2013-10-08 12:27:00,85.5,75.0,29.95,WSW,253,6.0,8.0,70,0.00,,,0.00,weatherlink.com 1.10,2013-10-08 16:27:00,
2013-10-08 12:41:00,86.2,75.0,29.95,West,273,6.0,13.0,69,0.00,,,0.00,weatherlink.com 1.10,2013-10-08 16:41:00,
2013-10-08 12:57:00,85.9,75.0,29.94,WSW,250,5.0,9.0,70,0.00,,,0.00,weatherlink.com 1.10,2013-10-08 16:57:00,
2013-10-08 13:26:00,85.3,75.0,29.94,West,280,3.0,9.0,70,0.00,,,0.00,weatherlink.com 1.10,2013-10-08 17:26:00,
2013-10-08 13:42:00,85.8,75.0,29.94,West,280,4.0,10.0,69,0.00,,,0.00,weatherlink.com 1.10,2013-10-08 17:42:00,
2013-10-08 13:58:00,86.6,76.0,29.93,West,280,5.0,10.0,71,0.00,,,0.00,weatherlink.com 1.10,2013-10-08 17:58:00,
2013-10-08 14:12:00,87.3,75.0,29.92,NNW,333,4.0,8.0,67,0.00,,,0.00,weatherlink.com 1.10,2013-10-08 18:12:00,
2013-10-08 14:28:00,87.2,75.0,29.92,West,269,6.0,8.0,67,0.00,,,0.00,weatherlink.com 1.10,2013-10-08 18:28:00,
2013-10-08 14:42:00,87.9,73.0,29.91,West,259,6.0,12.0,62,0.00,,,0.00,weatherlink.com 1.10,2013-10-08 18:42:00,
2013-10-08 14:58:00,88.0,75.0,29.91,West,270,6.0,10.0,66,0.00,,,0.00,weatherlink.com 1.10,2013-10-08 18:58:00,
2013-10-08 15:12:00,87.9,74.0,29.91,WSW,248,9.0,13.0,64,0.00,,,0.00,weatherlink.com 1.10,2013-10-08 19:12:00,
2013-10-08 15:27:00,87.5,73.0,29.91,West,275,3.0,11.0,63,0.00,,,0.00,weatherlink.com 1.10,2013-10-08 19:27:00,
2013-10-08 15:43:00,87.8,74.0,29.91,WNW,284,0.0,9.0,64,0.00,,,0.00,weatherlink.com 1.10,2013-10-08 19:43:00,
2013-10-08 15:57:00,88.6,74.0,29.91,WSW,256,3.0,8.0,63,0.00,,,0.00,weatherlink.com 1.10,2013-10-08 19:57:00,
2013-10-08 16:13:00,88.0,74.0,29.91,WNW,287,5.0,8.0,64,0.00,,,0.00,weatherlink.com 1.10,2013-10-08 20:13:00,
2013-10-08 16:28:00,87.8,74.0,29.91,WNW,290,3.0,11.0,64,0.00,,,0.00,weatherlink.com 1.10,2013-10-08 20:28:00,
2013-10-08 16:42:00,88.0,74.0,29.91,WNW,290,2.0,6.0,64,0.00,,,0.00,weatherlink.com 1.10,2013-10-08 20:42:00,
2013-10-08 16:58:00,88.1,74.0,29.91,SW,228,7.0,9.0,64,0.00,,,0.00,weatherlink.com 1.10,2013-10-08 20:58:00,
2013-10-08 17:12:00,88.6,74.0,29.91,WNW,285,5.0,9.0,63,0.00,,,0.00,weatherlink.com 1.10,2013-10-08 21:12:00,
2013-10-08 17:28:00,88.2,74.0,29.91,West,267,3.0,8.0,63,0.00,,,0.00,weatherlink.com 1.10,2013-10-08 21:28:00,
2013-10-08 17:43:00,87.6,74.0,29.91,WSW,256,4.0,6.0,64,0.00,,,0.00,weatherlink.com 1.10,2013-10-08 21:43:00,
2013-10-08 17:59:00,87.3,74.0,29.91,WSW,245,3.0,5.0,64,0.00,,,0.00,weatherlink.com 1.10,2013-10-08 21:59:00,
2013-10-08 18:13:00,86.6,72.0,29.91,West,264,6.0,12.0,62,0.00,,,0.00,weatherlink.com 1.10,2013-10-08 22:13:00,
2013-10-08 18:29:00,86.2,72.0,29.92,SW,221,6.0,11.0,62,0.00,,,0.00,weatherlink.com 1.10,2013-10-08 22:29:00,
2013-10-08 18:43:00,85.4,72.0,29.92,West,278,2.0,5.0,64,0.00,,,0.00,weatherlink.com 1.10,2013-10-08 22:43:00,
2013-10-08 18:58:00,84.6,72.0,29.93,WSW,245,3.0,4.0,66,0.00,,,0.00,weatherlink.com 1.10,2013-10-08 22:58:00,
2013-10-08 19:14:00,84.1,72.0,29.93,West,273,0.0,3.0,67,0.00,,,0.00,weatherlink.com 1.10,2013-10-08 23:14:00,
2013-10-08 19:29:00,83.6,72.0,29.93,West,262,0.0,0.0,69,0.00,,,0.00,weatherlink.com 1.10,2013-10-08 23:29:00,
2013-10-08 19:43:00,83.2,72.0,29.93,WNW,300,2.0,2.0,70,0.00,,,0.00,weatherlink.com 1.10,2013-10-08 23:43:00,
2013-10-08 19:59:00,82.6,73.0,29.94,WSW,243,3.0,4.0,72,0.00,,,0.00,weatherlink.com 1.10,2013-10-08 23:59:00,
2013-10-08 20:14:00,82.1,73.0,29.95,SW,225,1.0,3.0,73,0.00,,,0.00,weatherlink.com 1.10,2013-10-09 00:14:00,
2013-10-08 20:28:00,81.5,73.0,29.95,West,274,2.0,2.0,74,0.00,,,0.00,weatherlink.com 1.10,2013-10-09 00:28:00,
2013-10-08 20:44:00,81.0,72.0,29.95,West,281,1.0,4.0,75,0.00,,,0.00,weatherlink.com 1.10,2013-10-09 00:44:00,
2013-10-08 20:59:00,80.7,73.0,29.96,West,260,2.0,4.0,76,0.00,,,0.00,weatherlink.com 1.10,2013-10-09 00:59:00,
2013-10-08 21:13:00,80.3,73.0,29.96,SW,235,3.0,4.0,77,0.00,,,0.00,weatherlink.com 1.10,2013-10-09 01:13:00,
2013-10-08 21:29:00,80.2,72.0,29.97,WNW,288,3.0,4.0,77,0.00,,,0.00,weatherlink.com 1.10,2013-10-09 01:29:00,
2013-10-08 21:44:00,79.9,73.0,29.97,West,281,2.0,4.0,78,0.00,,,0.00,weatherlink.com 1.10,2013-10-09 01:44:00,
2013-10-08 22:00:00,79.4,72.0,29.97,WNW,288,2.0,4.0,79,0.00,,,0.00,weatherlink.com 1.10,2013-10-09 02:00:00,
2013-10-08 22:14:00,78.9,73.0,29.97,West,262,1.0,4.0,81,0.00,,,0.00,weatherlink.com 1.10,2013-10-09 02:14:00,
2013-10-08 22:30:00,78.3,72.0,29.98,West,278,0.0,5.0,82,0.00,,,0.00,weatherlink.com 1.10,2013-10-09 02:30:00,
2013-10-08 22:47:00,77.6,72.0,29.98,WSW,256,0.0,3.0,83,0.00,,,0.00,weatherlink.com 1.10,2013-10-09 02:47:00,
2013-10-08 22:59:00,77.2,72.0,29.98,WSW,248,1.0,3.0,84,0.00,,,0.00,weatherlink.com 1.10,2013-10-09 02:59:00,
2013-10-08 23:15:00,77.0,72.0,29.98,WSW,241,0.0,3.0,85,0.00,,,0.00,weatherlink.com 1.10,2013-10-09 03:15:00,
2013-10-08 23:30:00,76.6,72.0,29.98,WNW,292,1.0,5.0,85,0.00,,,0.00,weatherlink.com 1.10,2013-10-09 03:30:00,
2013-10-08 23:45:00,76.3,72.0,29.97,SW,232,3.0,4.0,85,0.00,,,0.00,weatherlink.com 1.10,2013-10-09 03:45:00,